| time (UTC) | temp F | wind direction | speed MPH | gust MPH | rain 1hr in | rain 24hr in | rain mn in | humidity % | barometer mb |
| 20260504110211 | 63 | 109 | 1.0 | 3.0 | 0.00 | 0.00 | 0.00 | 89 | 1013.3 |
| 20260504100543 | 62 | 108 | 1.0 | 3.0 | 0.00 | 0.00 | 0.00 | 90 | 1013.7 |
| 20260504100238 | 62 | 109 | 0.0 | 3.0 | 0.00 | 0.00 | 0.00 | 90 | 1013.8 |
| 20260504081728 | 63 | 109 | 1.0 | 3.0 | 0.00 | 0.00 | 0.00 | 88 | 1014.5 |
| 20260504081228 | 63 | 109 | 2.0 | 3.0 | 0.00 | 0.00 | 0.00 | 88 | 1014.3 |
| 20260504080655 | 63 | 109 | 1.0 | 3.0 | 0.00 | 0.00 | 0.00 | 87 | 1014.2 |
| 20260504080412 | 63 | 109 | 0.0 | 3.0 | 0.00 | 0.00 | 0.00 | 87 | 1014.5 |
| 20260504060204 | 65 | 108 | 3.0 | 7.0 | 0.00 | 0.00 | 0.00 | 82 | 1016.1 |
| 20260504050425 | 66 | 107 | 4.0 | 8.0 | 0.00 | 0.00 | 0.00 | 82 | 1016.6 |
| 20260504050146 | 66 | 107 | 3.0 | 5.0 | 0.00 | 0.00 | 0.00 | 81 | 1016.9 |
| 20260504045420 | 66 | 109 | 2.0 | 5.0 | 0.00 | 0.00 | 0.00 | 81 | 1016.9 |
| 20260504044858 | 66 | 109 | 2.0 | 5.0 | 0.00 | 0.00 | 0.00 | 81 | 1017.0 |
| 20260504044400 | 66 | 109 | 2.0 | 4.0 | 0.00 | 0.00 | 0.00 | 81 | 1017.0 |
| 20260504043840 | 66 | 109 | 3.0 | 5.0 | 0.00 | 0.00 | 0.00 | 81 | 1017.1 |
| 20260504043334 | 66 | 109 | 3.0 | 5.0 | 0.00 | 0.00 | 0.00 | 81 | 1017.0 |
| 20260504042759 | 66 | 108 | 2.0 | 7.0 | 0.00 | 0.00 | 0.00 | 81 | 1017.1 |
| 20260504042449 | 66 | 108 | 3.0 | 7.0 | 0.00 | 0.00 | 0.00 | 81 | 1017.0 |
| 20260504041923 | 66 | 108 | 3.0 | 7.0 | 0.00 | 0.00 | 0.00 | 81 | 1017.0 |
| 20260504041156 | 67 | 108 | 3.0 | 5.0 | 0.00 | 0.00 | 0.00 | 80 | 1016.9 |
| 20260504040127 | 67 | 108 | 3.0 | 5.0 | 0.00 | 0.00 | 0.00 | 80 | 1016.9 |
| 20260504035825 | 67 | 108 | 3.0 | 7.0 | 0.00 | 0.00 | 0.00 | 80 | 1017.0 |
| 20260504035058 | 67 | 108 | 3.0 | 7.0 | 0.00 | 0.00 | 0.00 | 79 | 1017.1 |
| 20260504034522 | 67 | 108 | 3.0 | 5.0 | 0.00 | 0.00 | 0.00 | 78 | 1017.0 |
| 20260504034004 | 67 | 108 | 3.0 | 7.0 | 0.00 | 0.00 | 0.00 | 78 | 1017.0 |
| 20260504033504 | 67 | 108 | 4.0 | 7.0 | 0.00 | 0.00 | 0.00 | 78 | 1016.9 |
| 20260504033203 | 68 | 108 | 3.0 | 5.0 | 0.00 | 0.00 | 0.00 | 77 | 1017.0 |
| 20260504032434 | 68 | 108 | 3.0 | 5.0 | 0.00 | 0.00 | 0.00 | 77 | 1016.9 |
| 20260504032145 | 68 | 108 | 2.0 | 4.0 | 0.00 | 0.00 | 0.00 | 77 | 1017.1 |
| 20260504031419 | 68 | 120 | 3.0 | 5.0 | 0.00 | 0.00 | 0.00 | 76 | 1017.1 |
| 20260504031130 | 68 | 120 | 3.0 | 8.0 | 0.00 | 0.00 | 0.00 | 76 | 1017.0 |
| 20260504030404 | 68 | 120 | 4.0 | 8.0 | 0.00 | 0.00 | 0.00 | 76 | 1017.0 |
| 20260504025838 | 68 | 117 | 4.0 | 9.0 | 0.00 | 0.00 | 0.00 | 75 | 1017.0 |
| 20260504025338 | 68 | 116 | 4.0 | 9.0 | 0.00 | 0.00 | 0.00 | 75 | 1016.9 |
| 20260504024801 | 69 | 113 | 4.0 | 8.0 | 0.00 | 0.00 | 0.00 | 74 | 1017.0 |
| 20260504024233 | 69 | 111 | 4.0 | 8.0 | 0.00 | 0.00 | 0.00 | 74 | 1016.8 |
| 20260504023206 | 69 | 120 | 4.0 | 7.0 | 0.00 | 0.00 | 0.00 | 72 | 1016.7 |
| 20260504022701 | 69 | 116 | 4.0 | 10.0 | 0.00 | 0.00 | 0.00 | 72 | 1016.6 |
| 20260504022143 | 69 | 116 | 5.0 | 10.0 | 0.00 | 0.00 | 0.00 | 71 | 1016.6 |
| 20260504021836 | 69 | 119 | 5.0 | 9.0 | 0.00 | 0.00 | 0.00 | 71 | 1016.5 |
| 20260504021112 | 69 | 119 | 5.0 | 9.0 | 0.00 | 0.00 | 0.00 | 71 | 1016.4 |
| 20260504020546 | 70 | 114 | 4.0 | 9.0 | 0.00 | 0.00 | 0.00 | 70 | 1016.5 |
| 20260504020043 | 70 | 125 | 4.0 | 8.0 | 0.00 | 0.00 | 0.00 | 70 | 1016.6 |
| 20260504015543 | 70 | 125 | 4.0 | 8.0 | 0.00 | 0.00 | 0.00 | 69 | 1016.6 |
| 20260504015044 | 70 | 132 | 4.0 | 8.0 | 0.00 | 0.00 | 0.00 | 69 | 1016.6 |
| 20260504014523 | 70 | 132 | 5.0 | 9.0 | 0.00 | 0.00 | 0.00 | 68 | 1016.6 |
| 20260504014239 | 71 | 134 | 5.0 | 9.0 | 0.00 | 0.00 | 0.00 | 67 | 1016.4 |
| 20260504013451 | 71 | 119 | 5.0 | 9.0 | 0.00 | 0.00 | 0.00 | 67 | 1016.4 |
| 20260504012949 | 71 | 142 | 5.0 | 9.0 | 0.00 | 0.00 | 0.00 | 67 | 1016.6 |
| 20260504012421 | 71 | 121 | 5.0 | 9.0 | 0.00 | 0.00 | 0.00 | 66 | 1016.6 |
| 20260504011919 | 71 | 112 | 5.0 | 10.0 | 0.00 | 0.00 | 0.00 | 65 | 1016.3 |
| 20260504011353 | 72 | 136 | 6.0 | 10.0 | 0.00 | 0.00 | 0.00 | 65 | 1016.5 |
| 20260504010845 | 72 | 101 | 5.0 | 10.0 | 0.00 | 0.00 | 0.00 | 64 | 1016.3 |
| 20260504010319 | 72 | 121 | 5.0 | 10.0 | 0.00 | 0.00 | 0.00 | 63 | 1016.5 |
| 20260504005509 | 73 | 119 | 6.0 | 10.0 | 0.00 | 0.00 | 0.00 | 62 | 1016.7 |
| 20260504004724 | 73 | 131 | 6.0 | 10.0 | 0.00 | 0.00 | 0.00 | 62 | 1016.6 |
| 20260504004212 | 73 | 126 | 6.0 | 12.0 | 0.00 | 0.00 | 0.00 | 62 | 1016.5 |
| 20260504003910 | 74 | 115 | 7.0 | 12.0 | 0.00 | 0.00 | 0.00 | 61 | 1016.6 |
| 20260504003149 | 74 | 137 | 7.0 | 13.0 | 0.00 | 0.00 | 0.00 | 60 | 1016.6 |
| 20260504002618 | 74 | 135 | 8.0 | 13.0 | 0.00 | 0.00 | 0.00 | 59 | 1016.6 |
| 20260504002309 | 74 | 118 | 7.0 | 14.0 | 0.00 | 0.00 | 0.00 | 59 | 1016.7 |
| 20260504000730 | 75 | 120 | 9.0 | 16.0 | 0.00 | 0.00 | 0.00 | 58 | 1016.5 |
| 20260504000004 | 75 | 96 | 9.0 | 15.0 | 0.00 | 0.00 | 0.00 | 58 | 1016.7 |
| 20260503235727 | 75 | 116 | 9.0 | 16.0 | 0.00 | 0.00 | 0.00 | 57 | 1016.7 |
| 20260503235221 | 75 | 139 | 9.0 | 16.0 | 0.00 | 0.00 | 0.00 | 57 | 1016.7 |
| 20260503234429 | 75 | 141 | 9.0 | 17.0 | 0.00 | 0.00 | 0.00 | 57 | 1016.7 |
| 20260503233902 | 76 | 142 | 9.0 | 17.0 | 0.00 | 0.00 | 0.00 | 57 | 1016.6 |
| 20260503233355 | 76 | 98 | 9.0 | 17.0 | 0.00 | 0.00 | 0.00 | 57 | 1016.5 |
| 20260503232855 | 76 | 132 | 10.0 | 17.0 | 0.00 | 0.00 | 0.00 | 57 | 1016.6 |
| 20260503232354 | 76 | 142 | 10.0 | 16.0 | 0.00 | 0.00 | 0.00 | 56 | 1016.7 |
| 20260503231826 | 76 | 92 | 10.0 | 16.0 | 0.00 | 0.00 | 0.00 | 57 | 1016.6 |
| 20260503231320 | 76 | 142 | 10.0 | 17.0 | 0.00 | 0.00 | 0.00 | 56 | 1016.6 |
| 20260503230822 | 77 | 138 | 9.0 | 17.0 | 0.00 | 0.00 | 0.00 | 56 | 1016.8 |
| 20260503230317 | 77 | 122 | 9.0 | 16.0 | 0.00 | 0.00 | 0.00 | 57 | 1016.8 |
| 20260503225743 | 77 | 90 | 9.0 | 16.0 | 0.00 | 0.00 | 0.00 | 56 | 1016.8 |
| 20260503225445 | 78 | 106 | 9.0 | 16.0 | 0.00 | 0.00 | 0.00 | 55 | 1016.8 |
| 20260503224707 | 78 | 136 | 8.0 | 22.0 | 0.00 | 0.00 | 0.00 | 56 | 1016.8 |
| 20260503224159 | 78 | 128 | 9.0 | 22.0 | 0.00 | 0.00 | 0.00 | 56 | 1016.8 |
| 20260503223658 | 77 | 126 | 10.0 | 19.0 | 0.00 | 0.00 | 0.00 | 57 | 1016.8 |
| 20260503223128 | 78 | 113 | 11.0 | 19.0 | 0.00 | 0.00 | 0.00 | 56 | 1017.1 |
| 20260503222602 | 78 | 92 | 9.0 | 17.0 | 0.00 | 0.00 | 0.00 | 57 | 1016.9 |
| 20260503222317 | 78 | 113 | 9.0 | 15.0 | 0.00 | 0.00 | 0.00 | 57 | 1016.9 |
| 20260503221533 | 78 | 137 | 9.0 | 15.0 | 0.00 | 0.00 | 0.00 | 56 | 1016.9 |
| 20260503221025 | 78 | 105 | 9.0 | 15.0 | 0.00 | 0.00 | 0.00 | 56 | 1016.9 |
| 20260503220728 | 78 | 139 | 10.0 | 15.0 | 0.00 | 0.00 | 0.00 | 56 | 1017.1 |
| 20260503215955 | 78 | 140 | 10.0 | 17.0 | 0.00 | 0.00 | 0.00 | 57 | 1017.2 |
| 20260503215430 | 78 | 95 | 10.0 | 17.0 | 0.00 | 0.00 | 0.00 | 57 | 1017.3 |
| 20260503215130 | 79 | 92 | 10.0 | 19.0 | 0.00 | 0.00 | 0.00 | 56 | 1017.1 |
| 20260503214353 | 79 | 134 | 10.0 | 19.0 | 0.00 | 0.00 | 0.00 | 55 | 1017.1 |
| 20260503213834 | 79 | 138 | 10.0 | 16.0 | 0.00 | 0.00 | 0.00 | 54 | 1017.3 |
| 20260503213549 | 79 | 115 | 10.0 | 22.0 | 0.00 | 0.00 | 0.00 | 54 | 1017.4 |
| 20260503213030 | 79 | 144 | 11.0 | 22.0 | 0.00 | 0.00 | 0.00 | 54 | 1017.5 |
| 20260503212527 | 79 | 165 | 11.0 | 23.0 | 0.00 | 0.00 | 0.00 | 55 | 1017.5 |
| 20260503211230 | 79 | 142 | 7.0 | 16.0 | 0.00 | 0.00 | 0.00 | 51 | 1017.8 |
| 20260503210702 | 79 | 101 | 7.0 | 14.0 | 0.00 | 0.00 | 0.00 | 52 | 1017.7 |
| 20260503210157 | 80 | 135 | 8.0 | 21.0 | 0.00 | 0.00 | 0.00 | 51 | 1017.8 |
| 20260503205623 | 79 | 138 | 8.0 | 21.0 | 0.00 | 0.00 | 0.00 | 52 | 1017.8 |
| 20260503205058 | 80 | 126 | 6.0 | 12.0 | 0.00 | 0.00 | 0.00 | 49 | 1018.0 |
| 20260503204758 | 80 | 138 | 6.0 | 12.0 | 0.00 | 0.00 | 0.00 | 49 | 1018.0 |
| 20260503204255 | 80 | 173 | 5.0 | 15.0 | 0.00 | 0.00 | 0.00 | 48 | 1018.1 |
| 20260503203509 | 80 | 150 | 6.0 | 15.0 | 0.00 | 0.00 | 0.00 | 47 | 1018.1 |
| 20260503203009 | 80 | 123 | 8.0 | 16.0 | 0.00 | 0.00 | 0.00 | 46 | 1018.2 |
| 20260503202448 | 80 | 107 | 6.0 | 16.0 | 0.00 | 0.00 | 0.00 | 48 | 1018.3 |
| 20260503201939 | 80 | 159 | 7.0 | 14.0 | 0.00 | 0.00 | 0.00 | 47 | 1018.4 |
| 20260503200844 | 80 | 180 | 7.0 | 14.0 | 0.00 | 0.00 | 0.00 | 45 | 1018.6 |
| 20260503200609 | 81 | 90 | 7.0 | 14.0 | 0.00 | 0.00 | 0.00 | 44 | 1018.6 |
| 20260503195818 | 81 | 113 | 6.0 | 11.0 | 0.00 | 0.00 | 0.00 | 42 | 1018.7 |
| 20260503195316 | 81 | 65 | 7.0 | 13.0 | 0.00 | 0.00 | 0.00 | 41 | 1018.8 |
| 20260503194804 | 80 | 84 | 6.0 | 13.0 | 0.00 | 0.00 | 0.00 | 42 | 1018.9 |
| 20260503194255 | 80 | 103 | 5.0 | 12.0 | 0.00 | 0.00 | 0.00 | 42 | 1019.0 |
| 20260503193743 | 80 | 70 | 5.0 | 11.0 | 0.00 | 0.00 | 0.00 | 42 | 1019.2 |
| 20260503193518 | 80 | 36 | 6.0 | 11.0 | 0.00 | 0.00 | 0.00 | 43 | 1019.2 |
| 20260503192724 | 80 | 94 | 7.0 | 17.0 | 0.00 | 0.00 | 0.00 | 42 | 1019.2 |
| 20260503192222 | 80 | 144 | 7.0 | 17.0 | 0.00 | 0.00 | 0.00 | 43 | 1019.3 |
| 20260503191716 | 80 | 78 | 7.0 | 12.0 | 0.00 | 0.00 | 0.00 | 42 | 1019.4 |
| 20260503191213 | 80 | 96 | 6.0 | 11.0 | 0.00 | 0.00 | 0.00 | 45 | 1019.5 |
| 20260503190650 | 80 | 110 | 6.0 | 11.0 | 0.00 | 0.00 | 0.00 | 44 | 1019.5 |
| 20260503190146 | 81 | 67 | 5.0 | 13.0 | 0.00 | 0.00 | 0.00 | 43 | 1019.6 |
| 20260503185904 | 81 | 88 | 5.0 | 13.0 | 0.00 | 0.00 | 0.00 | 44 | 1019.7 |
| 20260503185126 | 80 | 90 | 5.0 | 14.0 | 0.00 | 0.00 | 0.00 | 45 | 1019.7 |
| 20260503184604 | 79 | 111 | 5.0 | 14.0 | 0.00 | 0.00 | 0.00 | 46 | 1019.7 |
| 20260503184056 | 79 | 99 | 6.0 | 14.0 | 0.00 | 0.00 | 0.00 | 47 | 1019.8 |
| 20260503183529 | 79 | 136 | 6.0 | 14.0 | 0.00 | 0.00 | 0.00 | 48 | 1020.0 |
| 20260503183030 | 78 | 109 | 6.0 | 15.0 | 0.00 | 0.00 | 0.00 | 47 | 1020.0 |
| 20260503182501 | 78 | 92 | 7.0 | 15.0 | 0.00 | 0.00 | 0.00 | 47 | 1020.1 |
| 20260503181941 | 78 | 123 | 5.0 | 13.0 | 0.00 | 0.00 | 0.00 | 49 | 1020.2 |
| 20260503181429 | 78 | 200 | 5.0 | 11.0 | 0.00 | 0.00 | 0.00 | 51 | 1020.3 |
| 20260503180932 | 78 | 145 | 6.0 | 10.0 | 0.00 | 0.00 | 0.00 | 49 | 1020.5 |
| 20260503180419 | 78 | 171 | 5.0 | 14.0 | 0.00 | 0.00 | 0.00 | 49 | 1020.6 |
| 20260503175921 | 79 | 101 | 4.0 | 14.0 | 0.00 | 0.00 | 0.00 | 48 | 1020.7 |
| 20260503175406 | 78 | 67 | 5.0 | 11.0 | 0.00 | 0.00 | 0.00 | 48 | 1020.7 |
| 20260503174907 | 78 | 99 | 7.0 | 15.0 | 0.00 | 0.00 | 0.00 | 47 | 1020.8 |
| 20260503173838 | 78 | 115 | 5.0 | 9.0 | 0.00 | 0.00 | 0.00 | 50 | 1020.9 |
| 20260503173312 | 77 | 200 | 6.0 | 11.0 | 0.00 | 0.00 | 0.00 | 51 | 1021.1 |
| 20260503172807 | 77 | 180 | 6.0 | 13.0 | 0.00 | 0.00 | 0.00 | 49 | 1021.1 |
| 20260503172258 | 78 | 182 | 6.0 | 13.0 | 0.00 | 0.00 | 0.00 | 49 | 1021.3 |
| 20260503171737 | 78 | 137 | 5.0 | 11.0 | 0.00 | 0.00 | 0.00 | 46 | 1021.3 |
| 20260503171228 | 78 | 94 | 4.0 | 10.0 | 0.00 | 0.00 | 0.00 | 47 | 1021.3 |
| 20260503170948 | 78 | 126 | 4.0 | 10.0 | 0.00 | 0.00 | 0.00 | 50 | 1021.3 |
| 20260503170223 | 78 | 159 | 6.0 | 11.0 | 0.00 | 0.00 | 0.00 | 52 | 1021.4 |
| 20260503150719 | 75 | 63 | 3.0 | 8.0 | 0.00 | 0.00 | 0.00 | 62 | 1021.6 |
| 20260503150213 | 75 | 61 | 3.0 | 7.0 | 0.00 | 0.00 | 0.00 | 63 | 1021.5 |
| 20260503131223 | 62 | 23 | 1.0 | 3.0 | 0.00 | 0.00 | 0.00 | 89 | 1021.0 |
| 20260503130704 | 62 | 23 | 1.0 | 3.0 | 0.00 | 0.00 | 0.00 | 91 | 1020.9 |
| 20260503130154 | 61 | 23 | 1.0 | 3.0 | 0.00 | 0.00 | 0.00 | 91 | 1021.0 |